Find Starlink 34613

NORAD ID: 65294 Int'l Des: 2025-184 Owner: SPXS Country: US Constellation: starlink operational
LEOCIRCULARRETROGRADESSO

实时位置

正在加载3D地球...

关于 Starlink 34613

正在加载描述...

即将过境

Passes for default location (London). Set your location on the main map for personalized predictions.

高度历史

Loading altitude history...

两行轨道根数

1 65294U 25184X 26107.13855097 .00004889 00000-0 34276-3 0 9994
2 65294 97.6029 160.5215 0001482 96.3928 263.7467 15.05657845 37082
Epoch: Apr 17, 2026 • Age: 15 hours

当前状态

高度 557.1 km
速度 7.59 km/s
星下点 51.51°N, 36.98°E
发射日期 Aug 22, 2025
运行时间 0.6 years
类型 internet

技术详情

分类 Payload
质量 575.00 kg
干质量 530.00 kg
总质量 575.00 kg
长度 0.30 m
直径 4.10 m
跨度 29.00 m
形状 Box + pan
制造商 SPXS
平台类型 Starlink V2MO
阶段状态 In Orbit
所有者/国家 SPXS/US

Most Searched